Simultaneous Nadir Overpasses (SNOs) Predictions

Prediction of SNOs between NPP and PACE Satellite Orbit:

Table of predicted SNOs for the next 14.0 days since TLE Epoch: 8/10/2024
Index Date (NPP) Time (NPP) Lat,Lon (NPP) SZA (NPP ) Date (PACE) Time (PACE) Lat,Lon (PACE) SZA (PACE ) Distance(km) Time Diff (sec)
1 08/10/2024 22:21:45 -79.91, -13.25 112.96 08/10/2024 22:22:13 -79.91, -13.40 112.95 3.12 28
2 08/10/2024 23:12:25 79.74, 155.63 66.75 08/10/2024 23:11:18 79.74, 155.63 66.78 0.31 67
3 08/13/2024 02:48:12 -79.92, -79.97 112.30 08/13/2024 02:48:00 -79.91, -79.82 112.31 2.98 12
4 08/15/2024 06:23:57 80.01, 45.14 68.54 08/15/2024 06:24:40 80.01, 45.22 68.51 1.66 43
5 08/15/2024 07:14:36 -79.84,-145.88 111.77 08/15/2024 07:13:44 -79.84,-145.72 111.77 3.22 52
6 08/17/2024 10:50:20 79.92, -20.54 69.04 08/17/2024 10:50:22 79.91, -20.42 69.02 2.52 2
7 08/19/2024 14:26:04 -80.01, 104.61 110.11 08/19/2024 14:26:59 -80.01, 104.66 110.14 1.09 55
8 08/19/2024 15:16:41 79.77, -85.71 69.46 08/19/2024 15:16:02 79.78, -85.84 69.49 2.52 39
9 08/21/2024 18:52:28 -79.96, 38.55 109.50 08/21/2024 18:52:40 -79.95, 38.70 109.53 3.13 12
10 08/23/2024 22:28:10 80.00, 164.22 71.29 08/23/2024 22:29:14 80.00, 164.14 71.27 1.80 64



Historial Predications of SNOs between NPP and PACE
